RH
19 22 24 19 17 15 15 16 16 23 19 21 24 17 22 26 60 28 36 35 42 49 44 42 52 54 52 63 66 64 69 72 67 66 68 70 68 65 67 64 64 78 77 78
22 28 18 14 14 17 18 14 14 14 18 22 17 15 15 37 50 26 28 37 40 41 47 47 44 47 52 60 60 59 61 63 62 61 59 60 57 59 61 60 64 77 82 80
26 19 16 15 17 19 18 18 16 17 23 17 17 17 15 17 20 20 26 36 32 41 48 52 47 50 52 56 56 55 57 59 60 55 50 51 54 57 56 60 64 77 85 89
20 16 17 18 20 16 23 15 15 15 21 21 18 28 24 19 19 22 24 32 39 41 44 49 49 50 51 54 54 53 54 53 52 51 46 52 50 51 53 59 59 71 84 86
23 18 18 21 18 16 20 17 20 19 19 21 19 30 27 19 21 20 25 25 37 40 41 46 48 48 48 50 54 52 50 47 48 49 54 61 56 54 58 62 66 83 90 88
18 13 14 15 17 15 16 18 21 21 22 35 22 25 22 23 25 18 22 23 27 33 39 40 44 45 45 47 53 54 52 49 48 49 55 62 64 63 58 60 69 81 89 88
19 18 13 14 18 18 20 24 38 60 51 46 18 19 26 32 28 19 18 18 23 30 32 38 41 42 44 48 53 55 53 51 50 53 56 58 64 71 64 67 80 88 89 91
27 32 17 16 20 21 23 24 41 51 81 54 38 29 18 20 20 14 12 15 19 24 30 31 34 38 40 46 51 52 50 51 49 52 55 66 66 68 77 87 79 84 85 89
29 26 14 16 16 17 22 31 22 34 55 68 40 32 16 14 13 13 13 15 18 19 22 28 28 36 39 42 51 56 51 49 48 50 56 71 78 76 72 78 76 87 89 91
23 31 20 14 14 16 18 15 35 32 60 57 28 21 33 18 16 13 14 18 22 23 21 22 26 32 37 41 48 54 54 49 50 52 61 67 73 78 77 86 88 94 92 93
21 27 26 16 19 20 20 24 29 28 33 53 58 40 44 22 15 15 18 17 21 26 26 25 26 29 32 38 43 52 53 50 51 52 66 73 77 80 93 92 94 93 94 92
22 28 34 24 16 16 18 24 26 43 39 42 54 39 20 21 17 17 17 15 21 23 24 27 28 28 31 34 39 48 52 53 52 58 68 81 92 91 95 97 98 94 94 93
24 30 39 29 24 20 22 22 26 27 30 42 80 45 16 16 15 15 18 17 20 24 24 28 32 32 33 37 42 50 54 53 69 78 84 93 94 95 97 97 95 92 93 94
38 30 33 42 40 24 27 22 23 33 58 43 49 38 24 17 18 15 17 17 17 22 24 29 34 36 38 41 45 50 63 79 75 80 88 94 96 95 94 93 92 93 90 90
34 40 32 25 20 19 21 21 20 20 34 56 37 24 19 17 18 18 19 19 19 18 22 25 32 40 43 50 70 72 77 78 80 86 89 93 91 90 89 87 86 86 86 84
30 39 34 38 22 20 25 21 17 17 18 18 19 21 14 14 14 14 18 18 18 17 18 23 29 38 45 66 72 77 80 80 79 85 86 84 84 80 83 82 82 81 79 78
39 40 42 50 29 26 39 25 19 17 17 18 24 20 15 15 14 17 16 18 19 21 24 27 32 44 55 66 74 76 78 76 76 75 72 72 71 74 75 70 71 74 79 82
46 42 43 65 69 61 29 20 17 19 17 14 14 13 13 13 14 18 18 20 24 28 32 35 48 61 59 62 67 70 67 68 69 65 63 63 65 64 64 66 72 76 78 84
41 51 90 75 60 39 27 22 23 24 22 16 16 14 12 13 22 28 24 28 32 37 41 45 50 54 56 58 59 59 60 57 57 59 60 58 63 67 66 72 77 79 76 79
53 54 72 86 74 70 43 25 17 20 38 19 17 20 19 20 42 28 30 32 38 39 42 46 49 50 52 52 51 53 54 56 57 58 60 62 63 64 67 69 71 70 67 54
83 88 89 80 89 57 27 23 21 42 43 25 20 21 23 29 29 35 33 38 37 39 42 45 46 48 48 47 49 52 54 57 55 57 58 60 58 60 60 61 58 54 55 66
77 88 94 82 93 87 31 25 32 35 34 30 26 27 37 40 40 37 38 40 39 39 41 42 46 48 46 45 48 51 57 54 53 56 54 52 52 45 44 54 54 49 58 66
55 51 70 67 59 42 44 37 35 37 37 34 34 26 30 44 40 39 41 41 39 39 42 41 44 48 48 45 49 54 54 50 52 52 50 46 42 40 40 47 47 48 55 67
39 41 53 55 41 43 45 39 37 35 38 28 26 25 31 43 40 41 41 40 41 40 41 40 46 50 52 49 47 49 48 48 50 49 46 42 40 36 35 30 36 55 70 79
37 38 46 48 38 39 34 31 37 42 35 32 28 32 30 38 39 40 40 41 40 40 40 43 50 53 52 48 47 45 45 46 43 43 38 40 42 40 38 45 52 72 71 80
28 31 50 59 38 47 42 30 29 33 29 31 32 35 30 37 39 38 40 40 40 42 44 48 50 50 46 46 46 45 43 39 41 38 43 66 65 57 40 46 51 70 68 68
Wind_Speed
16 12 15 19 18 23 13 14 17 14 6 8 12 12 15 8 17 9 17 14 13 15 17 12 22 20 17 17 17 17 17 17 13 12 11 9 8 7 5 4 7 9 8 7
15 18 20 20 17 7 12 15 16 8 8 11 13 11 6 18 21 13 13 13 14 13 18 14 15 17 20 20 18 18 16 17 15 12 12 10 9 7 7 6 6 7 7 7
19 17 23 18 11 9 14 14 16 11 10 19 11 14 10 5 14 11 14 16 14 15 18 18 17 15 20 22 20 18 19 19 17 17 10 8 7 6 7 7 6 6 7 4
20 22 10 10 11 12 14 13 14 10 12 10 3 7 6 11 11 14 13 16 18 14 16 20 21 20 18 21 20 20 21 20 18 15 12 14 10 10 8 8 8 9 10 8
18 21 18 14 15 14 13 6 6 10 11 14 15 4 4 9 12 16 14 14 20 20 19 20 20 21 20 18 19 19 20 21 18 16 13 7 8 7 5 5 7 9 8 7
22 15 18 17 14 15 12 10 10 10 10 11 16 11 9 2 9 8 17 17 17 21 22 21 20 20 20 18 17 18 18 18 17 17 17 12 9 7 7 7 7 7 8 7
21 22 18 14 18 8 11 10 8 2 6 9 15 12 3 11 8 11 15 16 16 19 21 21 24 22 21 22 22 19 20 19 18 15 13 14 9 8 9 6 6 8 6 7
17 16 21 13 15 14 14 14 8 6 5 9 11 5 5 15 17 7 2 3 13 14 17 20 22 22 21 21 22 21 21 21 18 15 11 7 11 9 7 7 8 6 7 8
17 22 15 19 15 18 14 14 15 8 2 5 8 10 8 11 9 5 6 4 6 9 14 20 20 21 21 20 20 20 19 19 18 17 13 10 9 13 10 12 9 5 4 5
18 13 24 23 20 19 17 14 9 7 5 5 10 12 6 5 8 7 7 5 6 1 5 9 16 18 19 19 19 19 19 18 17 14 14 13 12 12 8 6 6 6 8 7
21 16 11 16 17 16 11 13 10 13 11 5 4 2 4 11 9 6 4 7 5 2 4 1 2 11 17 17 17 19 19 19 14 13 10 10 11 8 4 5 6 6 7 8
25 6 12 14 14 16 19 16 18 10 8 10 6 2 7 5 9 8 5 6 5 4 5 5 3 4 10 14 16 17 15 14 13 9 12 8 8 5 6 8 8 8 8 7
22 14 11 14 16 17 15 12 15 13 10 13 4 7 4 3 3 1 4 4 9 5 5 6 5 2 2 3 6 9 9 10 6 8 12 12 8 10 10 9 9 8 8 8
10 13 14 11 17 13 14 16 18 18 6 6 9 12 16 11 10 8 10 11 7 10 8 9 8 7 5 4 5 7 9 13 12 12 12 11 10 11 10 9 9 8 8 9
7 17 20 16 18 19 20 21 20 22 17 14 19 16 14 10 4 7 6 9 5 7 9 8 10 8 9 9 13 12 11 12 11 12 12 11 12 10 10 10 9 10 9 9
11 14 15 19 17 22 15 22 21 20 20 17 17 17 14 10 10 8 9 9 8 7 7 6 13 15 13 14 12 11 10 10 10 11 12 11 11 11 11 11 10 10 10 10
11 9 13 17 15 18 20 16 17 16 19 16 16 12 11 11 8 6 8 8 10 5 3 3 4 12 12 15 12 11 10 10 10 11 11 11 12 12 12 11 12 11 9 9
3 10 11 5 3 23 9 15 16 15 16 15 14 13 12 11 9 3 5 4 8 9 7 6 7 9 13 12 15 14 12 11 11 12 12 12 12 12 11 10 9 9 7 7
4 4 4 5 12 13 16 15 11 11 17 18 18 17 13 11 5 4 4 2 8 9 7 6 9 10 11 13 13 14 13 12 12 12 12 12 12 11 10 10 8 7 5 6
2 12 7 3 5 14 9 14 16 9 13 14 14 10 9 7 4 2 11 6 10 11 9 10 11 12 12 13 14 14 13 13 13 13 13 12 11 10 9 8 8 7 6 5
4 8 9 6 4 8 8 16 14 15 10 8 11 12 11 4 4 9 11 10 11 12 13 13 13 12 13 14 14 14 14 13 13 13 11 11 9 9 9 7 6 5 5 8
13 11 5 4 4 14 7 8 20 8 10 3 9 6 2 10 11 13 13 13 14 15 15 15 13 13 13 14 14 14 13 13 13 12 11 10 9 8 7 7 5 6 6 6
12 9 8 7 6 7 8 6 7 7 9 10 7 9 4 14 11 13 14 14 14 15 14 13 13 14 13 14 13 14 14 13 13 12 11 10 8 7 6 6 5 5 6 5
9 16 9 10 18 7 15 8 5 5 6 11 9 10 3 12 13 13 13 14 14 14 15 13 15 14 13 13 13 13 13 13 12 11 11 9 8 7 6 5 4 5 5 3
8 5 10 13 10 8 16 9 9 2 7 10 6 4 11 12 14 14 14 15 14 14 13 13 13 12 13 12 13 12 12 12 12 11 9 8 5 7 6 9 5 7 6 4
8 8 5 5 6 3 5 8 11 10 11 12 7 5 9 9 12 14 14 13 14 14 13 12 11 11 11 11 11 11 10 10 10 9 7 5 4 4 7 8 6 11 10 10
Wind_Direction
205 228 235 237 235 246 314 308 290 178 218 206 237 267 160 165 354 178 148 169 163 163 145 167 155 165 151 152 164 172 170 174 174 182 197 213 204 191 210 203 191 174 190 204
221 223 243 247 261 308 288 277 274 217 176 212 261 272 244 144 204 188 163 161 171 169 147 168 151 150 151 160 177 175 181 181 189 188 197 206 186 193 200 212 202 167 177 210
221 232 224 241 259 250 259 262 273 308 207 262 257 264 264 144 208 180 170 168 176 172 158 164 167 173 162 170 179 179 183 191 202 216 189 193 198 191 197 204 207 181 162 186
228 238 229 230 238 249 256 257 250 264 278 276 139 294 231 250 190 194 187 177 165 177 171 168 176 182 183 176 178 183 187 199 206 217 194 197 195 200 192 196 197 181 173 183
233 232 239 226 235 236 257 333 279 295 274 278 271 313 323 195 225 209 185 197 161 172 180 177 180 183 187 182 179 186 196 202 200 207 222 195 204 195 187 191 186 150 161 177
238 229 231 240 232 244 273 237 249 261 259 263 269 206 240 254 302 292 170 200 178 172 176 180 183 186 187 187 186 192 202 206 207 202 214 213 194 194 198 196 198 162 170 183
228 245 223 232 231 187 239 239 243 344 268 236 258 255 134 153 264 233 245 186 182 175 178 181 182 189 188 187 188 192 202 211 212 216 199 197 204 198 211 229 180 164 189 188
220 225 232 207 235 217 210 228 237 240 184 305 352 263 263 180 189 168 98 259 177 190 179 184 184 184 191 191 191 194 198 206 214 213 207 178 194 216 189 195 235 187 207 207
211 231 222 211 201 240 252 214 246 245 42 260 227 275 174 168 151 180 180 165 197 202 197 186 189 183 185 188 192 194 199 205 213 210 190 181 193 226 208 206 218 196 157 133
239 218 234 204 206 209 238 262 238 223 208 229 252 259 148 190 146 134 161 118 101 250 233 212 190 184 184 186 185 189 195 209 209 206 185 187 189 216 222 193 143 132 123 119
232 252 252 207 195 212 213 243 237 247 226 230 289 69 356 300 136 155 94 129 136 107 137 306 232 187 181 177 181 183 191 202 210 201 160 180 193 197 155 139 116 109 109 121
228 230 250 199 198 215 243 212 230 233 209 279 198 270 205 167 229 158 223 162 112 132 145 141 216 268 182 181 180 178 180 197 211 189 177 170 139 132 91 82 95 112 114 102
208 228 233 224 231 207 229 218 252 254 233 219 170 266 223 242 220 228 200 203 145 206 146 136 138 189 224 108 127 148 169 191 91 105 111 101 99 86 86 81 81 84 96 108
180 220 231 235 209 222 225 230 220 226 227 237 202 227 253 245 214 224 213 198 193 170 155 157 158 154 145 133 114 108 72 90 99 105 106 106 98 96 95 98 98 104 108 111
211 225 231 245 251 222 218 220 230 249 197 176 236 249 258 264 322 290 28 128 209 195 173 167 149 145 138 121 93 87 77 79 87 94 95 101 100 100 105 104 103 104 106 111
237 226 223 245 233 256 229 250 221 231 243 245 238 237 245 260 210 244 169 178 193 200 204 178 157 150 151 119 117 110 104 99 104 103 110 109 114 122 118 116 118 117 126 126
221 213 219 235 239 256 254 235 259 232 229 237 241 251 259 261 253 280 234 182 179 188 134 180 197 136 130 114 124 115 114 117 110 109 119 132 126 121 126 134 138 130 125 127
351 242 224 212 195 240 265 267 243 258 269 266 265 261 250 258 260 115 43 137 142 135 155 165 113 123 118 124 126 130 143 138 141 135 130 124 132 130 121 115 117 125 123 124
2 335 338 230 222 261 241 239 245 240 247 244 245 262 241 235 87 117 116 351 137 138 138 129 113 123 131 125 135 137 144 139 128 132 135 131 119 121 127 126 121 120 135 147
222 295 270 291 193 227 232 248 239 245 265 257 266 259 252 166 187 239 143 133 122 132 143 140 135 131 136 142 137 139 140 143 143 136 127 134 142 135 129 139 152 164 152 116
186 283 265 247 262 288 227 223 253 245 242 251 272 265 260 201 144 112 132 138 145 147 144 140 149 149 147 144 144 147 144 137 130 132 137 129 135 136 138 122 128 128 98 93
169 171 223 236 229 237 297 253 214 235 247 268 283 277 273 105 118 136 146 151 157 159 156 159 156 154 152 152 152 142 137 141 138 130 132 138 133 135 130 121 112 100 97 106
193 206 177 193 234 254 214 246 323 342 342 308 321 267 209 134 148 154 160 166 168 167 161 167 159 156 155 155 143 149 149 136 138 143 133 127 131 124 122 111 118 98 92 95
266 197 218 197 233 260 288 294 240 266 287 306 339 311 286 152 154 164 168 170 169 166 179 165 161 163 158 154 155 137 139 143 139 134 134 134 122 115 100 94 87 88 72 74
242 290 192 241 256 200 233 246 224 280 288 295 271 320 306 156 171 173 178 173 174 173 171 166 165 165 156 148 130 135 139 144 142 136 131 117 124 119 101 67 50 92 58 55
246 259 257 253 260 244 257 289 281 267 266 248 217 229 264 171 177 177 179 177 176 174 162 158 160 154 142 127 132 137 143 147 134 130 118 107 105 103 133 130 111 71 124 118